Location: Orange Harbor Mobile Home Park
(26.6923°N, 81.7937°W)
Time: 22:55:51
(UTC+00:00)

ARGOS - Pass Details

Date: 19 September 2020
Orbit: 821 x 834 km, 98.4° (Epoch: 25 October)

Event Time Altitude Azimuth Distance (km) Brightness Sun altitude
Exits shadow 00:16:41 10° 131° (SE) 2,432 5.1 -11.8°
Reaches altitude 10° 00:16:45 10° 131° (SE) 2,409 5.1 -11.8°
Maximum altitude 00:21:19 30° 72° (ENE) 1,442 3.9 -12.8°
Drops below altitude 10° 00:25:54 10° 13° (NNE) 2,421 5.5 -13.8°
Sets 00:28:30 0° 2° (N) 3,358 6.4 -14.4°
